Location: Kumla
(59.1265°N, 15.1401°E)
Time: 07:50:20
(UTC+01:00)

Vanguard 1 Rocket - Pass Details

Date: 05 December 2023
Orbit: 653 x 4219 km, 34.3° (Epoch: 04 March)

Event Time Altitude Azimuth Distance (km) Brightness Sun altitude
Rises 03:24:56 0° 197° (SSW) 8,275 12.0 -37.3°
Reaches altitude 10° 03:34:56 10° 180° (S) 6,741 11.6 -36.1°
Maximum altitude 03:44:12 15° 153° (SSE) 5,581 11.4 -35.0°
Drops below altitude 10° 03:51:37 10° 125° (SE) 5,239 11.7 -34.1°
Sets 03:57:23 0° 105° (ESE) 5,558 12.3 -33.3°
